When you browse on this site, cookies collect data to enhance your experience and personalize the content and advertising you see.
Visit our Privacy Policy to learn more. By continuing to use the site, you agree to this use of cookies and data.
  • In Netherlands
  • List of Countries
  • For 7 days
  • Water Temperature
  • Weather Map
  • Weather Widgets
  • user-avatar
    Login

    Hourly Weather Golden Sands

    Today, 18 August, Sunday

    Time Temperature Precipitation Wind Pressure Humidity
    00:00 +20°C° 0 mm 2 mps 760 mmHg 63%
    01:00 +19°C° 0 mm 3 mps 760 mmHg 62%
    02:00 +19°C° 0 mm 4 mps 760 mmHg 62%
    03:00 +19°C° 0 mm 5 mps 760 mmHg 61%
    04:00 +17°C° 0 mm 5 mps 760 mmHg 59%
    05:00 +17°C° 0 mm 6 mps 760 mmHg 58%
    06:00 +20°C° 0 mm 6 mps 760 mmHg 52%
    07:00 +22°C° 0 mm 6 mps 760 mmHg 46%
    08:00 +25°C° 0 mm 5 mps 761 mmHg 40%
    09:00 +26°C° 0 mm 5 mps 761 mmHg 37%
    10:00 +27°C° 0 mm 5 mps 761 mmHg 35%
    11:00 +29°C° 0 mm 4 mps 761 mmHg 32%
    12:00 +29°C° 0 mm 4 mps 761 mmHg 33%
    13:00 +29°C° 0 mm 4 mps 761 mmHg 35%
    14:00 +29°C° 0 mm 4 mps 761 mmHg 36%
    15:00 +28°C° 0 mm 4 mps 760 mmHg 39%
    16:00 +28°C° 0 mm 4 mps 760 mmHg 41%
    17:00 +27°C° 0 mm 3 mps 760 mmHg 44%
    18:00 +25°C° 0 mm 3 mps 761 mmHg 50%
    19:00 +24°C° 0 mm 3 mps 761 mmHg 57%
    20:00 +21°C° 0 mm 3 mps 761 mmHg 63%
    21:00 +21°C° 0 mm 2 mps 761 mmHg 64%
    22:00 +21°C° 0 mm 2 mps 761 mmHg 65%
    23:00 +20°C° 0 mm 2 mps 761 mmHg 66%

    Tomorrow, 19 August, Monday

    Time Temperature Precipitation Wind Pressure Humidity
    00:00 +20°C° 0 mm 2 mps 761 mmHg 67%
    01:00 +21°C° 0 mm 1 mps 761 mmHg 68%
    02:00 +20°C° 0 mm 1 mps 761 mmHg 69%
    03:00 +19°C° 0 mm 2 mps 761 mmHg 68%
    04:00 +19°C° 0 mm 2 mps 761 mmHg 67%
    05:00 +19°C° 0 mm 2 mps 762 mmHg 65%
    06:00 +23°C° 0 mm 2 mps 762 mmHg 57%
    07:00 +25°C° 0 mm 3 mps 762 mmHg 48%
    08:00 +27°C° 0 mm 3 mps 762 mmHg 39%
    09:00 +28°C° 0 mm 3 mps 762 mmHg 38%
    10:00 +29°C° 0 mm 3 mps 762 mmHg 37%
    11:00 +30°C° 0 mm 4 mps 762 mmHg 37%
    12:00 +30°C° 0 mm 4 mps 762 mmHg 38%
    13:00 +30°C° 0 mm 4 mps 762 mmHg 39%
    14:00 +30°C° 0 mm 4 mps 762 mmHg 40%
    15:00 +29°C° 0 mm 4 mps 762 mmHg 42%
    16:00 +28°C° 0 mm 4 mps 762 mmHg 45%
    17:00 +28°C° 0 mm 4 mps 762 mmHg 47%
    18:00 +26°C° 0 mm 3 mps 762 mmHg 56%
    19:00 +24°C° 0 mm 3 mps 762 mmHg 66%
    20:00 +23°C° 0 mm 2 mps 762 mmHg 75%
    21:00 +21°C° 0 mm 2 mps 762 mmHg 76%
    22:00 +22°C° 0 mm 1 mps 763 mmHg 77%
    23:00 +20°C° 0 mm 0 mps 763 mmHg 79%

    Day after tomorrow, 20 August, Tuesday

    Time Temperature Precipitation Wind Pressure Humidity
    00:00 +21°C° 0 mm 1 mps 763 mmHg 80%
    01:00 +20°C° 0 mm 2 mps 763 mmHg 81%
    02:00 +20°C° 0 mm 3 mps 762 mmHg 82%
    03:00 +19°C° 0 mm 4 mps 762 mmHg 81%
    04:00 +19°C° 0 mm 4 mps 762 mmHg 80%
    05:00 +19°C° 0 mm 5 mps 762 mmHg 79%
    06:00 +21°C° 0 mm 5 mps 763 mmHg 70%
    07:00 +23°C° 0 mm 5 mps 763 mmHg 61%
    08:00 +26°C° 0 mm 6 mps 763 mmHg 53%
    09:00 +27°C° 0 mm 6 mps 763 mmHg 48%
    10:00 +29°C° 0 mm 6 mps 763 mmHg 43%
    11:00 +30°C° 0 mm 6 mps 763 mmHg 37%
    12:00 +32°C° 0 mm 6 mps 763 mmHg 38%
    13:00 +32°C° 0 mm 7 mps 763 mmHg 38%
    14:00 +32°C° 0 mm 7 mps 763 mmHg 38%
    15:00 +30°C° 0 mm 7 mps 762 mmHg 40%
    16:00 +30°C° 0 mm 7 mps 762 mmHg 42%
    17:00 +29°C° 0 mm 7 mps 762 mmHg 44%
    18:00 +28°C° 0 mm 7 mps 762 mmHg 52%
    19:00 +26°C° 0 mm 6 mps 762 mmHg 60%
    20:00 +23°C° 0 mm 6 mps 762 mmHg 69%
    21:00 +23°C° 0 mm 5 mps 762 mmHg 70%
    22:00 +23°C° 0 mm 5 mps 762 mmHg 71%
    23:00 +23°C° 0 mm 4 mps 762 mmHg 72%

    21 August, Wednesday

    Time Temperature Precipitation Wind Pressure Humidity
    00:00 +23°C° 0 mm 5 mps 762 mmHg 71%
    01:00 +23°C° 0 mm 5 mps 762 mmHg 69%
    02:00 +23°C° 0 mm 6 mps 761 mmHg 68%
    03:00 +23°C° 0 mm 6 mps 761 mmHg 65%
    04:00 +23°C° 0 mm 7 mps 761 mmHg 63%
    05:00 +24°C° 0 mm 7 mps 761 mmHg 60%
    06:00 +26°C° 0 mm 7 mps 761 mmHg 56%
    07:00 +27°C° 0 mm 7 mps 761 mmHg 51%
    08:00 +29°C° 0 mm 7 mps 761 mmHg 47%
    09:00 +30°C° 0 mm 7 mps 761 mmHg 44%
    10:00 +32°C° 0 mm 7 mps 761 mmHg 42%
    11:00 +34°C° 0 mm 8 mps 761 mmHg 40%
    12:00 +34°C° 0 mm 8 mps 761 mmHg 39%
    13:00 +34°C° 0 mm 8 mps 761 mmHg 38%
    14:00 +34°C° 0 mm 8 mps 760 mmHg 38%
    15:00 +33°C° 0 mm 8 mps 760 mmHg 41%
    16:00 +32°C° 0 mm 7 mps 760 mmHg 45%
    17:00 +30°C° 0 mm 7 mps 760 mmHg 49%
    18:00 +29°C° 0 mm 6 mps 760 mmHg 54%
    19:00 +27°C° 0 mm 5 mps 760 mmHg 60%
    20:00 +25°C° 0 mm 4 mps 760 mmHg 65%
    21:00 +25°C° 0 mm 4 mps 760 mmHg 61%
    22:00 +26°C° 0 mm 3 mps 760 mmHg 58%
    23:00 +26°C° 0 mm 3 mps 760 mmHg 54%

    22 August, Thursday

    Time Temperature Precipitation Wind Pressure Humidity
    00:00 +25°C° 0 mm 4 mps 760 mmHg 54%
    01:00 +25°C° 0 mm 4 mps 760 mmHg 54%
    02:00 +25°C° 0 mm 5 mps 759 mmHg 54%
    03:00 +25°C° 0 mm 5 mps 759 mmHg 54%
    04:00 +24°C° 0 mm 6 mps 759 mmHg 55%
    05:00 +24°C° 0 mm 7 mps 759 mmHg 55%
    06:00 +27°C° 0 mm 7 mps 759 mmHg 50%
    07:00 +28°C° 0 mm 7 mps 759 mmHg 45%
    08:00 +31°C° 0 mm 8 mps 760 mmHg 40%
    09:00 +32°C° 0 mm 8 mps 760 mmHg 37%
    10:00 +34°C° 0 mm 7 mps 760 mmHg 34%
    11:00 +35°C° 0 mm 7 mps 760 mmHg 31%
    12:00 +36°C° 0 mm 7 mps 760 mmHg 31%
    13:00 +36°C° 0 mm 7 mps 759 mmHg 31%
    14:00 +38°C° 0 mm 7 mps 759 mmHg 32%
    15:00 +36°C° 0 mm 7 mps 759 mmHg 33%
    16:00 +36°C° 0 mm 6 mps 759 mmHg 34%
    17:00 +35°C° 0 mm 5 mps 759 mmHg 36%
    18:00 +33°C° 0 mm 5 mps 759 mmHg 43%
    19:00 +30°C° 0 mm 5 mps 759 mmHg 50%
    20:00 +28°C° 0 mm 4 mps 759 mmHg 58%
    21:00 +28°C° 0 mm 6 mps 759 mmHg 56%
    22:00 +28°C° 0 mm 7 mps 759 mmHg 54%
    23:00 +29°C° 0 mm 9 mps 759 mmHg 52%

    23 August, Friday

    Time Temperature Precipitation Wind Pressure Humidity
    00:00 +28°C° 0 mm 10 mps 759 mmHg 55%
    01:00 +27°C° 0 mm 11 mps 759 mmHg 58%
    02:00 +26°C° 0 mm 12 mps 759 mmHg 61%
    03:00 +24°C° 0 mm 12 mps 759 mmHg 65%
    04:00 +23°C° 0 mm 12 mps 759 mmHg 69%
    05:00 +22°C° 0 mm 12 mps 760 mmHg 73%
    06:00 +23°C° 0 mm 11 mps 760 mmHg 69%
    07:00 +24°C° 0 mm 11 mps 760 mmHg 65%
    08:00 +24°C° 0 mm 10 mps 760 mmHg 61%
    09:00 +28°C° 0 mm 9 mps 760 mmHg 55%
    10:00 +31°C° 0 mm 9 mps 760 mmHg 48%
    11:00 +33°C° 0 mm 8 mps 760 mmHg 42%
    12:00 +34°C° 0 mm 9 mps 760 mmHg 40%
    13:00 +35°C° 0 mm 9 mps 760 mmHg 38%
    14:00 +37°C° 0 mm 9 mps 760 mmHg 36%
    15:00 +35°C° 0 mm 9 mps 760 mmHg 39%
    16:00 +34°C° 0 mm 9 mps 759 mmHg 42%
    17:00 +33°C° 0 mm 8 mps 759 mmHg 45%
    18:00 +32°C° 0 mm 8 mps 759 mmHg 50%
    19:00 +29°C° 0 mm 7 mps 759 mmHg 55%
    20:00 +28°C° 0 mm 6 mps 759 mmHg 60%
    21:00 +28°C° 0 mm 6 mps 760 mmHg 59%
    22:00 +28°C° 0 mm 6 mps 760 mmHg 58%
    23:00 +27°C° 0 mm 7 mps 760 mmHg 57%
    Show more